When you browse on this site, cookies collect data to enhance your experience and personalize the content and advertising you see.
Visit our Privacy Policy to learn more. By continuing to use the site, you agree to this use of cookies and data.
  • In Österreich
  • Länderverzeichnis
  • Für 7 Tage
  • Wassertemperatur
  • Satellitenkarten
  • Wetterkarte
  • News
  • Widgets
  • user-avatar
    Anmelden

    Stündliche Wetter Lezhe

    Heute, 23 Juli, Dienstag

    Zeit Temperatur Niederschläge Wind Luftdruck Luftfeuchtigkeit
    00:00 +22°C° 0 mm 3 m/S 739 mmHg 74%
    01:00 +21°C° 0 mm 3 m/S 739 mmHg 76%
    02:00 +21°C° 0 mm 3 m/S 739 mmHg 76%
    03:00 +21°C° 0 mm 4 m/S 739 mmHg 76%
    04:00 +21°C° 0 mm 4 m/S 739 mmHg 76%
    05:00 +22°C° 0 mm 4 m/S 739 mmHg 71%
    06:00 +25°C° 0 mm 4 m/S 739 mmHg 66%
    07:00 +26°C° 0 mm 4 m/S 739 mmHg 60%
    08:00 +28°C° 0 mm 4 m/S 739 mmHg 54%
    09:00 +30°C° 0 mm 4 m/S 739 mmHg 47%
    10:00 +32°C° 0 mm 5 m/S 739 mmHg 40%
    11:00 +33°C° 0 mm 4 m/S 738 mmHg 37%
    12:00 +34°C° 0 mm 4 m/S 738 mmHg 34%
    13:00 +35°C° 0 mm 4 m/S 738 mmHg 31%
    14:00 +35°C° 0 mm 4 m/S 738 mmHg 31%
    15:00 +35°C° 0 mm 4 m/S 738 mmHg 31%
    16:00 +34°C° 0 mm 4 m/S 737 mmHg 31%
    17:00 +32°C° 0 mm 4 m/S 737 mmHg 37%
    18:00 +29°C° 0 mm 4 m/S 737 mmHg 42%
    19:00 +27°C° 0 mm 3 m/S 737 mmHg 48%
    20:00 +26°C° 0 mm 3 m/S 737 mmHg 49%
    21:00 +26°C° 0 mm 3 m/S 737 mmHg 50%
    22:00 +25°C° 0 mm 4 m/S 738 mmHg 51%
    23:00 +23°C° 0 mm 4 m/S 738 mmHg 53%

    Morgen, 24 Juli, Mittwoch

    Zeit Temperatur Niederschläge Wind Luftdruck Luftfeuchtigkeit
    00:00 +24°C° 0 mm 3 m/S 737 mmHg 56%
    01:00 +22°C° 0 mm 3 m/S 737 mmHg 59%
    02:00 +21°C° 0 mm 3 m/S 737 mmHg 61%
    03:00 +21°C° 0 mm 3 m/S 737 mmHg 64%
    04:00 +21°C° 0 mm 4 m/S 737 mmHg 66%
    05:00 +22°C° 0 mm 4 m/S 737 mmHg 62%
    06:00 +25°C° 0 mm 4 m/S 737 mmHg 58%
    07:00 +27°C° 0 mm 4 m/S 737 mmHg 53%
    08:00 +28°C° 0 mm 4 m/S 737 mmHg 49%
    09:00 +30°C° 0 mm 4 m/S 737 mmHg 44%
    10:00 +32°C° 0 mm 5 m/S 737 mmHg 39%
    11:00 +33°C° 0 mm 5 m/S 737 mmHg 38%
    12:00 +34°C° 0 mm 5 m/S 737 mmHg 36%
    13:00 +34°C° 0 mm 5 m/S 737 mmHg 35%
    14:00 +34°C° 0 mm 5 m/S 737 mmHg 36%
    15:00 +34°C° 0 mm 4 m/S 736 mmHg 36%
    16:00 +33°C° 0 mm 4 m/S 736 mmHg 37%
    17:00 +30°C° 0 mm 4 m/S 736 mmHg 43%
    18:00 +28°C° 0 mm 3 m/S 736 mmHg 48%
    19:00 +27°C° 0 mm 3 m/S 737 mmHg 54%
    20:00 +26°C° 0 mm 3 m/S 737 mmHg 55%
    21:00 +25°C° 0 mm 3 m/S 737 mmHg 57%
    22:00 +23°C° 0 mm 4 m/S 738 mmHg 59%
    23:00 +22°C° 0 mm 4 m/S 738 mmHg 61%

    übermorgen, 25 Juli, Donnerstag

    Zeit Temperatur Niederschläge Wind Luftdruck Luftfeuchtigkeit
    00:00 +22°C° 0 mm 4 m/S 737 mmHg 63%
    01:00 +21°C° 0 mm 4 m/S 737 mmHg 65%
    02:00 +21°C° 0 mm 4 m/S 737 mmHg 67%
    03:00 +20°C° 0 mm 4 m/S 737 mmHg 68%
    04:00 +20°C° 0 mm 4 m/S 738 mmHg 70%
    05:00 +21°C° 0 mm 4 m/S 738 mmHg 65%
    06:00 +23°C° 0 mm 4 m/S 738 mmHg 61%
    07:00 +26°C° 0 mm 4 m/S 738 mmHg 56%
    08:00 +28°C° 0 mm 4 m/S 738 mmHg 50%
    09:00 +30°C° 0 mm 3 m/S 738 mmHg 43%
    10:00 +33°C° 0 mm 3 m/S 739 mmHg 37%
    11:00 +34°C° 0 mm 3 m/S 738 mmHg 35%
    12:00 +35°C° 0 mm 3 m/S 738 mmHg 32%
    13:00 +36°C° 0 mm 3 m/S 738 mmHg 30%
    14:00 +35°C° 0 mm 3 m/S 738 mmHg 32%
    15:00 +35°C° 0 mm 3 m/S 737 mmHg 34%
    16:00 +34°C° 0 mm 2 m/S 737 mmHg 36%
    17:00 +31°C° 0 mm 2 m/S 737 mmHg 43%
    18:00 +28°C° 0 mm 1 m/S 737 mmHg 51%
    19:00 +24°C° 0 mm 0 m/S 737 mmHg 58%
    20:00 +25°C° 0 mm 1 m/S 737 mmHg 59%
    21:00 +25°C° 0 mm 1 m/S 737 mmHg 59%
    22:00 +24°C° 0 mm 1 m/S 738 mmHg 60%
    23:00 +24°C° 0 mm 1 m/S 737 mmHg 61%

    26 Juli, Freitag

    Zeit Temperatur Niederschläge Wind Luftdruck Luftfeuchtigkeit
    00:00 +23°C° 0 mm 2 m/S 737 mmHg 63%
    01:00 +23°C° 0 mm 2 m/S 737 mmHg 65%
    02:00 +23°C° 0 mm 2 m/S 737 mmHg 66%
    03:00 +23°C° 0 mm 2 m/S 737 mmHg 66%
    04:00 +22°C° 0 mm 1 m/S 736 mmHg 67%
    05:00 +24°C° 0 mm 1 m/S 736 mmHg 62%
    06:00 +26°C° 0 mm 1 m/S 736 mmHg 57%
    07:00 +28°C° 0 mm 1 m/S 736 mmHg 52%
    08:00 +30°C° 0 mm 1 m/S 736 mmHg 48%
    09:00 +31°C° 0 mm 1 m/S 736 mmHg 43%
    10:00 +34°C° 0 mm 2 m/S 736 mmHg 38%
    11:00 +34°C° 0 mm 2 m/S 736 mmHg 37%
    12:00 +34°C° 0 mm 3 m/S 735 mmHg 37%
    13:00 +35°C° 0 mm 4 m/S 735 mmHg 36%
    14:00 +34°C° 0 mm 3 m/S 735 mmHg 37%
    15:00 +33°C° 0 mm 3 m/S 734 mmHg 39%
    16:00 +32°C° 0 mm 2 m/S 734 mmHg 40%
    17:00 +30°C° 0 mm 2 m/S 734 mmHg 47%
    18:00 +28°C° 0 mm 1 m/S 734 mmHg 53%
    19:00 +23°C° 0 mm 0 m/S 734 mmHg 60%
    20:00 +25°C° 0 mm 1 m/S 734 mmHg 62%
    21:00 +24°C° 0 mm 1 m/S 734 mmHg 64%
    22:00 +23°C° 0 mm 1 m/S 734 mmHg 66%
    23:00 +23°C° 0 mm 1 m/S 734 mmHg 66%

    27 Juli, Samstag

    Zeit Temperatur Niederschläge Wind Luftdruck Luftfeuchtigkeit
    00:00 +21°C° 0 mm 0 m/S 734 mmHg 67%
    01:00 +20°C° 0 mm 0 m/S 733 mmHg 67%
    02:00 +22°C° 0 mm 1 m/S 733 mmHg 68%
    03:00 +22°C° 0 mm 1 m/S 733 mmHg 69%
    04:00 +21°C° 0 mm 1 m/S 733 mmHg 70%
    05:00 +23°C° 0 mm 1 m/S 733 mmHg 64%
    06:00 +25°C° 0 mm 1 m/S 733 mmHg 59%
    07:00 +27°C° 0 mm 1 m/S 733 mmHg 53%
    08:00 +29°C° 0 mm 1 m/S 733 mmHg 48%
    09:00 +31°C° 0 mm 2 m/S 733 mmHg 42%
    10:00 +32°C° 0 mm 2 m/S 733 mmHg 37%
    11:00 +34°C° 0 mm 3 m/S 732 mmHg 37%
    12:00 +34°C° 0 mm 3 m/S 732 mmHg 37%
    13:00 +34°C° 0 mm 3 m/S 732 mmHg 37%
    14:00 +34°C° 0 mm 3 m/S 732 mmHg 39%
    15:00 +33°C° 0 mm 3 m/S 731 mmHg 40%
    16:00 +32°C° 0 mm 2 m/S 731 mmHg 41%
    17:00 +29°C° 0 mm 2 m/S 731 mmHg 48%
    18:00 +27°C° 0 mm 1 m/S 731 mmHg 55%
    19:00 +23°C° 0 mm 0 m/S 731 mmHg 62%
    20:00 +22°C° 0 mm 0 m/S 731 mmHg 65%
    21:00 +22°C° 0 mm 0 m/S 731 mmHg 67%
    22:00 +21°C° 0 mm 0 m/S 732 mmHg 70%
    23:00 +23°C° 0 mm 1 m/S 732 mmHg 70%

    28 Juli, Sonntag

    Zeit Temperatur Niederschläge Wind Luftdruck Luftfeuchtigkeit
    00:00 +22°C° 0 mm 1 m/S 731 mmHg 71%
    01:00 +22°C° 0 mm 1 m/S 731 mmHg 72%
    02:00 +22°C° 0.1 mm 1 m/S 731 mmHg 72%
    03:00 +22°C° 0.1 mm 1 m/S 731 mmHg 72%
    04:00 +22°C° 0.1 mm 1 m/S 731 mmHg 72%
    05:00 +23°C° 0.9 mm 1 m/S 731 mmHg 72%
    06:00 +23°C° 0.9 mm 1 m/S 731 mmHg 72%
    07:00 +24°C° 0.9 mm 1 m/S 731 mmHg 73%
    08:00 +26°C° 1.1 mm 1 m/S 731 mmHg 68%
    09:00 +27°C° 1.1 mm 1 m/S 731 mmHg 63%
    10:00 +28°C° 1.1 mm 1 m/S 731 mmHg 58%
    11:00 +29°C° 0.1 mm 1 m/S 731 mmHg 52%
    12:00 +31°C° 0.1 mm 1 m/S 731 mmHg 46%
    13:00 +32°C° 0.1 mm 2 m/S 730 mmHg 40%
    14:00 +31°C° 0.1 mm 2 m/S 730 mmHg 42%
    15:00 +30°C° 0.1 mm 2 m/S 730 mmHg 45%
    16:00 +29°C° 0.1 mm 2 m/S 730 mmHg 47%
    17:00 +28°C° 0.5 mm 2 m/S 730 mmHg 55%
    18:00 +26°C° 0.5 mm 1 m/S 730 mmHg 64%
    19:00 +24°C° 0.5 mm 1 m/S 730 mmHg 72%
    20:00 +24°C° 0.5 mm 1 m/S 731 mmHg 76%
    21:00 +23°C° 0.5 mm 1 m/S 731 mmHg 79%
    22:00 +22°C° 0.5 mm 1 m/S 731 mmHg 82%
    23:00 +22°C° 0 mm 1 m/S 731 mmHg 82%
    Mehr zeigen